Weather in Chumphon

Thailand     10°29′20″N   99°11′30″E
temp.,
°C
wind,
m/s
gust,
m/s
humid.,
%
clouds,
%
prec.,
mm/h
press.,
hPa
HPBL,
m
1 march, mon
mon101:00+23wnw22904 0.0 101179
04:00+23nw22890 0.0 101080
07:00+22nw22891 0.0 101275
10:00+28ese137027 0.0 1014508
13:00+28ese346914 0.0 1012562
16:00+29ese446211 0.0 1009757
19:00+27ese347326 0.0 1011357
22:00+26ene01750 0.0 1014378
2 march, tue
tue201:00+24wnw11830 0.0 101367
04:00+24nw228749 0.0 101175
07:00+24nnw128653 0.0 101279
10:00+29ese346850 0.0 1014675
13:00+30ese456325 0.0 1011904
16:00+29ese35670 0.0 1009799
19:00+27ese34795 0.0 1010489
22:00+27se23811 0.0 1012399
3 march, wed
wed301:00+26se13836 0.0 1012435
04:00+26sse138633 0.1 1010414
07:00+26se248337 0.1 1012522
10:00+29ese456825 0.0 10131006
13:00+29ese566622 0.0 10111051
16:00+29ese46682 0.0 1009981
19:00+27ese46791 0.1 1010625
22:00+27ese46790 0.0 1012651
4 march, thu
thu401:00+27ese46820 0.0 1012573
04:00+27ese46790 0.0 1010620
07:00+27ese57801 0.0 1012775
10:00+29ese57704 0.6 10131037
13:00+30ese57702 1.6 10111006
16:00+29ese57710 0.6 10091011
19:00+28ese57790 0.7 1011784
22:00+27ese468228 0.1 1013634
5 march, fri
fri501:00+27ese358419 0.2 1012525
04:00+27se468243 0.0 1010574
07:00+27ese578035 0.1 1012779
10:00+29ese686919 0.1 10141123
13:00+30ese576619 0.1 10111106
16:00+29ese45682 0.0 1009992
19:00+27ese34778 0.0 1010510
22:00+26e24780 0.0 1013470